This demonstration page uses our WeatherBlox Daily Observations layout. Learn more.

Left ArrowRight Arrow

39.08367, -84.50855

Hourly Observations for November 20, 2018

Temp ( °F °C ) Dew Point ( °F °C ) Humidity (%) Winds ( mph kmh ) Pressure ( in mb ) Visibility ( mi km ) Precip ( " mm )
12:22 am 00:22 Cloudy 41 5 38 3.3 89 89 WNW 5 7 30.09 1019 7 11 0.00 0.00
12:53 am 00:53 Cloudy with Mist and Fog 41 5 38 3.3 89 89 NNW 6 9 30.09 1019 6 10 0.00 0.00
1:11 am 01:11 Cloudy 40 4.4 38 3.3 93 93 W 5 7 30.09 1019 7 11 0.00 0.03
1:38 am 01:38 Cloudy 40 4.4 37 2.8 89 89 NW 7 11 30.09 1019 8 13 0.00 0.03
1:53 am 01:53 Cloudy 40 4.4 37 2.8 89 89 VRB 5 7 30.09 1019 8 13 0.00 0.03
2:53 am 02:53 Cloudy 40 4.4 35 1.7 83 83 NNW 7 11 30.10 1019 9 14 0.00 0.00
3:07 am 03:07 Cloudy 39 3.9 35 1.7 86 86 NNW 5 7 30.09 1019 10 16 0.00 0.00
3:53 am 03:53 Cloudy 40 4.4 35 1.7 83 83 W 10 17 30.11 1020 10 16 0.00 0.00
4:50 am 04:50 Cloudy 39 4 34 1 81 81 W 6 9 30.09 1019 10 16 0.00 0.00
4:53 am 04:53 Cloudy 38 3.3 34 1.1 86 86 W 6 9 30.11 1020 10 16 0.00 0.00
5:53 am 05:53 Cloudy 38 3.3 34 1.1 86 86 W 7 11 30.12 1020 10 16 0.00 0.00
6:33 am 06:33 Cloudy 39 3.9 34 1.1 82 82 W 10 17 30.12 1020 10 16 0.00 0.00
6:53 am 06:53 Cloudy 38 3.3 35 1.7 89 89 WSW 6 9 30.14 1021 10 16 0.00 0.00
7:53 am 07:53 Cloudy with Mist and Fog 38 3.3 35 1.7 89 89 WSW 8 13 30.16 1021 5 8 0.00 0.00
8:53 am 08:53 Cloudy with Mist and Fog 39 3.9 36 2.2 89 89 WSW 6 9 30.18 1022 7 11 0.00 0.00
9:36 am 09:36 Cloudy 39 3.9 36 2.2 89 89 WSW 7 11 30.18 1022 8 13 0.00 0.00
9:53 am 09:53 Cloudy 40 4.4 36 2.2 86 86 WSW 7 11 30.19 1023 8 13 0.00 0.00
10:03 am 10:03 Cloudy with Heavy Rain 39 3.9 36 2.2 89 89 WNW 13 20 30.21 1023 2 3 0.02 0.51
10:07 am 10:07 Cloudy with Heavy Rain 37 2.8 35 1.7 93 93 W 7 11 30.21 1023 3 5 0.02 0.51
10:53 am 10:53 Cloudy 39 3.9 36 2.2 89 89 NW 9 15 30.23 1024 10 16 0.03 0.76
11:53 am 11:53 Cloudy 40 4.4 33 0.6 77 77 NW 9 15 30.23 1024 10 16 0.00 0.00
12:53 pm 12:53 Cloudy 40 4.4 31 -0.6 70 70 W 12 19 30.23 1024 10 16 0.00 0.00
1:53 pm 13:53 Cloudy 39 3.9 32 0 76 76 WNW 8 13 30.23 1024 9 14 0.00 0.00
2:53 pm 14:53 Cloudy 39 3.9 31 -0.6 73 73 NW 10 17 30.24 1024 8 13 0.00 0.00
3:53 pm 15:53 Cloudy 39 3.9 31 -0.6 73 73 WNW 8 13 30.24 1024 10 16 0.00 0.00
4:53 pm 16:53 Cloudy 38 3.3 29 -1.7 70 70 W 9 15 30.25 1025 9 14 0.00 0.00
5:53 pm 17:53 Cloudy 38 3.3 26 -3.3 62 62 WNW 7 11 30.27 1025 10 16 0.00 0.00
6:53 pm 18:53 Cloudy 37 2.8 26 -3.3 65 65 W 9 15 30.27 1025 10 16 0.00 0.00
7:53 pm 19:53 Cloudy 36 2.2 25 -3.9 64 64 W 7 11 30.28 1025 10 16 0.00 0.00
8:53 pm 20:53 Mostly Cloudy 33 0.6 27 -2.8 78 78 SSW 5 7 30.27 1025 10 16 0.00 0.00
9:53 pm 21:53 Cloudy 34 1.1 29 -1.7 82 82 SW 5 7 30.27 1025 10 16 0.00 0.00
10:29 pm 22:29 Cloudy 34 1.1 29 -1.7 82 82 WSW 6 9 30.27 1025 10 16 0.00 0.00
10:53 pm 22:53 Mostly Cloudy 35 1.7 28 -2.2 76 76 WSW 8 13 30.27 1025 10 16 0.00 0.00
11:09 pm 23:09 Mostly Cloudy 33 0.6 27 -2.8 78 78 SW 7 11 30.30 1026 10 16 0.00 0.00
11:53 pm 23:53 Cloudy 34 1.1 28 -2.2 79 79 SW 6 9 30.27 1025 10 16 0.00 0.00

Powered by AerisWeather